EW9994 Weather Reports


Display with metric or nautical units.
time (UTC)temp
F
wind
direction
speed
MPH
gust
MPH
rain 1hr
in
rain 24hr
in
rain mn
in
humidity
%
barometer
mb
20191114144924 58 99 0.0 2.0 0.00 0.01 0.01 68 1005.7
20191114144424 59 115 1.0 2.0 0.00 0.01 0.01 67 1005.7
20191114143924 59 155 1.0 2.0 0.00 0.01 0.01 65 1005.7
20191114143424 59 73 2.0 7.0 0.00 0.01 0.01 60 1005.7
20191114141923 61 5 1.0 3.0 0.00 0.01 0.01 62 1005.8
20191114140923 60 239 0.0 2.0 0.00 0.01 0.01 62 1006.0
20191114140424 59 36 0.0 7.0 0.00 0.01 0.01 62 1006.1
20191114133924 58 354 1.0 3.0 0.00 0.01 0.01 65 1006.2
20191114133424 58 4 2.0 8.0 0.00 0.01 0.01 63 1006.1
20191114131923 59 219 2.0 6.0 0.00 0.01 0.01 63 1006.2
20191114130923 59 177 5.0 8.0 0.00 0.01 0.01 67 1006.2
20191114130424 59 124 5.0 8.0 0.00 0.01 0.01 64 1006.2
20191114124924 59 162 5.0 9.0 0.00 0.02 0.01 67 1006.4
20191114124423 58 215 1.0 3.0 0.00 0.02 0.01 70 1006.6
20191114123924 58 141 1.0 7.0 0.00 0.02 0.01 71 1006.6
20191114121923 58 186 3.0 5.0 0.00 0.02 0.01 73 1006.7
20191114121425 58 198 4.0 6.0 0.00 0.02 0.01 74 1006.8
20191114120924 58 231 3.0 6.0 0.00 0.03 0.01 74 1006.9
20191114120423 58 197 4.0 8.0 0.00 0.03 0.01 74 1007.0
20191114114424 57 219 5.0 7.0 0.00 0.04 0.01 74 1006.7
20191114113924 57 212 4.0 7.0 0.00 0.04 0.01 75 1006.8
20191114113423 57 240 4.0 9.0 0.00 0.04 0.01 76 1006.8
20191114111924 57 214 3.0 6.0 0.00 0.04 0.01 76 1007.0
20191114111424 57 213 3.0 5.0 0.00 0.04 0.01 74 1007.2
20191114110924 57 195 3.0 5.0 0.00 0.04 0.01 75 1007.4
20191114110424 56 211 3.0 7.0 0.00 0.04 0.01 78 1007.6
20191114103423 55 165 3.0 5.0 0.00 0.04 0.01 84 1008.0
20191114101925 52 86 1.0 2.0 0.00 0.04 0.01 86 1008.1
20191114101424 52 82 2.0 3.0 0.00 0.04 0.01 86 1008.2
20191114100424 52 133 1.0 3.0 0.00 0.04 0.01 87 1008.5
20191114094924 51 117 2.0 3.0 0.00 0.04 0.01 88 1008.9
20191114094423 51 232 1.0 3.0 0.00 0.04 0.01 88 1009.0
20191114093424 50 244 2.0 6.0 0.00 0.04 0.01 89 1009.0
20191114091924 50 194 2.0 5.0 0.00 0.04 0.01 91 1008.8
20191114090424 49 205 1.0 2.0 0.00 0.04 0.01 91 1008.6
20191114084924 48 242 0.0 1.0 0.00 0.04 0.01 93 1008.7
20191114084424 48 243 2.0 3.0 0.00 0.04 0.01 91 1008.7
20191114083924 48 238 1.0 3.0 0.00 0.04 0.01 93 1008.7
20191114083424 47 67 1.0 5.0 0.00 0.04 0.01 92 1008.7
20191114081924 46 38 5.0 6.0 0.00 0.04 0.01 91 1008.5
20191114081424 46 35 5.0 9.0 0.00 0.04 0.01 92 1008.4
20191114080923 46 35 7.0 10.0 0.00 0.04 0.01 93 1008.3
20191114073924 43 35 5.0 8.0 0.01 0.04 0.01 95 1008.5
20191114073424 42 25 6.0 8.0 0.01 0.04 0.01 94 1008.5
20191114071924 43 38 4.0 5.0 0.01 0.04 0.01 94 1008.2
20191114071424 42 9 2.0 2.0 0.01 0.04 0.01 94 1008.1
20191114070924 42 3 1.0 3.0 0.01 0.04 0.01 94 1008.0
20191114070423 43 28 4.0 6.0 0.01 0.04 0.01 94 1007.9
20191114063924 42 37 5.0 6.0 0.00 0.03 0.00 94 1007.7
20191114063423 42 29 3.0 5.0 0.00 0.03 0.00 94 1007.8
20191114061925 42 42 2.0 3.0 0.00 0.03 0.00 94 1007.8
20191114061425 42 29 2.0 5.0 0.00 0.03 0.00 94 1007.7
20191114060925 42 18 3.0 7.0 0.00 0.03 0.00 94 1007.6
20191114060424 42 23 4.0 7.0 0.00 0.03 0.00 94 1007.6
20191114054924 42 13 3.0 5.0 0.00 0.03 0.00 94 1007.6
20191114054423 42 33 3.0 3.0 0.00 0.03 0.00 94 1007.6
20191114053424 42 36 0.0 1.0 0.00 0.03 0.00 93 1007.5
20191114051923 43 36 0.0 3.0 0.00 0.05 0.00 93 1007.3
20191114051423 43 37 3.0 3.0 0.00 0.06 0.00 94 1007.1
20191114050923 43 37 3.0 3.0 0.00 0.06 0.00 94 1007.1
20191114050423 43 57 2.0 5.0 0.00 0.06 0.00 93 1007.0
20191114044424 43 43 3.0 5.0 0.00 0.08 0.00 94 1006.9
20191114043924 43 49 3.0 5.0 0.00 0.08 0.00 93 1007.0
20191114041923 44 25 3.0 7.0 0.00 0.09 0.00 93 1006.9
20191114041423 44 40 4.0 7.0 0.00 0.09 0.00 94 1006.9
20191114040923 43 34 3.0 7.0 0.00 0.09 0.00 93 1006.7
20191114040423 44 27 4.0 7.0 0.00 0.09 0.00 94 1006.7
20191114034923 44 33 3.0 6.0 0.00 0.09 0.00 93 1006.7
20191114033923 44 22 3.0 5.0 0.00 0.09 0.00 93 1006.8
20191114033423 44 20 1.0 3.0 0.00 0.09 0.00 93 1006.8
20191114031923 44 355 0.0 2.0 0.00 0.09 0.00 93 1006.8
20191114031422 44 10 3.0 8.0 0.00 0.10 0.00 94 1006.6
20191114030428 44 13 5.0 7.0 0.00 0.11 0.00 94 1006.7
20191114024923 44 20 4.0 7.0 0.00 0.11 0.00 94 1006.8
20191114024423 44 37 4.0 6.0 0.00 0.11 0.00 94 1006.9
20191114023923 44 30 5.0 7.0 0.00 0.11 0.00 94 1006.9
20191114023424 44 34 4.0 7.0 0.00 0.11 0.00 94 1006.9
20191114021923 44 33 3.0 5.0 0.00 0.12 0.00 94 1006.9
20191114021426 44 36 5.0 6.0 0.00 0.12 0.00 94 1006.8
20191114020923 44 45 4.0 6.0 0.00 0.12 0.00 94 1006.8
20191114020423 44 47 3.0 3.0 0.00 0.12 0.00 94 1006.8
20191114014923 45 13 3.0 3.0 0.00 0.13 0.00 93 1006.7
20191114013931 45 26 4.0 7.0 0.00 0.13 0.00 94 1006.7
20191114011427 45 24 3.0 7.0 0.00 0.13 0.00 94 1006.7
20191114010430 45 8 3.0 3.0 0.00 0.13 0.00 94 1006.8
20191114004923 45 34 3.0 3.0 0.00 0.13 0.00 94 1006.9
20191114003924 45 40 3.0 3.0 0.00 0.14 0.00 94 1007.0
20191114001923 45 32 0.0 2.0 0.00 0.15 0.00 93 1006.8
20191114001422 45 32 1.0 3.0 0.00 0.15 0.00 93 1006.7
20191114000424 45 37 3.0 5.0 0.00 0.15 0.00 93 1006.7
20191113234923 46 39 0.0 1.0 0.00 0.17 0.00 93 1006.6
20191113233922 46 39 1.0 3.0 0.00 0.17 0.00 93 1006.5
20191113231423 46 34 2.0 3.0 0.00 0.18 0.00 92 1006.4
20191113230423 46 44 2.0 7.0 0.00 0.18 0.00 92 1006.4
20191113224923 46 77 2.0 8.0 0.00 0.19 0.17 92 1006.3
20191113224423 46 29 6.0 9.0 0.00 0.19 0.17 92 1006.2
20191113223922 46 34 6.0 8.0 0.00 0.19 0.17 93 1006.2
20191113223423 46 22 6.0 9.0 0.00 0.20 0.17 93 1006.2
20191113221926 46 31 4.0 9.0 0.00 0.20 0.17 93 1006.3
20191113221423 46 28 6.0 9.0 0.00 0.21 0.17 93 1006.3
20191113214923 46 0 3.0 5.0 0.00 0.23 0.17 93 1006.2
20191113214422 46 39 3.0 5.0 0.00 0.24 0.17 93 1006.3
20191113213922 46 25 2.0 3.0 0.00 0.24 0.17 93 1006.3
20191113213424 46 29 3.0 3.0 0.00 0.24 0.17 93 1006.1
20191113211424 46 0 1.0 2.0 0.00 0.24 0.17 93 1006.0
20191113204923 47 31 2.0 3.0 0.00 0.26 0.17 92 1005.6
20191113204423 47 30 4.0 7.0 0.00 0.26 0.17 93 1005.6
20191113203923 47 31 5.0 6.0 0.00 0.27 0.17 93 1005.7
20191113201921 47 17 2.0 3.0 0.00 0.31 0.17 93 1005.6
20191113200922 46 35 2.0 3.0 0.00 0.35 0.17 92 1005.6
20191113200422 46 33 3.0 5.0 0.00 0.37 0.17 92 1005.6
20191113194922 47 26 5.0 6.0 0.00 0.43 0.17 92 1005.5
20191113193922 47 28 3.0 3.0 0.00 0.47 0.17 92 1005.4
20191113193423 47 17 3.0 6.0 0.00 0.50 0.17 92 1005.3
20191113191922 47 41 3.0 3.0 0.00 0.57 0.17 92 1005.1
20191113190923 47 38 3.0 5.0 0.00 0.60 0.17 92 1005.0
20191113184923 48 58 2.0 5.0 0.00 0.65 0.17 92 1004.8
20191113181925 48 18 2.0 3.0 0.00 0.71 0.17 92 1004.4
20191113181424 48 348 2.0 6.0 0.00 0.71 0.17 92 1004.4
20191113180423 48 35 2.0 7.0 0.00 0.72 0.17 92 1004.2
20191113174922 49 38 5.0 7.0 0.00 0.73 0.17 92 1004.2
20191113174423 49 28 4.0 6.0 0.00 0.74 0.17 91 1004.2
20191113173923 49 27 5.0 7.0 0.00 0.74 0.17 91 1004.1
20191113171921 50 25 3.0 5.0 0.00 0.75 0.17 92 1003.9
20191113171421 50 20 2.0 3.0 0.00 0.76 0.17 91 1003.8
20191113170422 50 11 3.0 7.0 0.00 0.77 0.17 91 1003.7
20191113163922 50 49 0.0 1.0 0.00 0.79 0.17 92 1003.4
20191113163422 50 49 1.0 3.0 0.00 0.80 0.17 92 1003.2
20191113161922 49 345 1.0 2.0 0.00 0.80 0.17 91 1002.9
20191113161422 50 345 1.0 2.0 0.00 0.80 0.17 91 1002.7
20191113160923 50 37 2.0 3.0 0.00 0.80 0.17 91 1002.6
20191113154923 51 22 2.0 6.0 0.00 0.80 0.17 90 1002.2
20191113154422 51 22 3.0 6.0 0.00 0.80 0.17 91 1002.2
20191113153922 51 17 5.0 6.0 0.00 0.80 0.17 90 1002.1
20191113153423 51 49 4.0 6.0 0.00 0.80 0.17 90 1002.1
20191113151922 52 47 1.0 2.0 0.00 0.80 0.17 89 1001.9
20191113151422 53 47 1.0 2.0 0.00 0.80 0.17 88 1001.7
20191113150922 53 47 1.0 2.0 0.00 0.80 0.17 87 1001.7
20191113150423 53 46 2.0 3.0 0.00 0.80 0.17 87 1001.7